Погода в Нижней Лужна

Россия / Орловская область     53°00′53″N   36°05′37″E
темп.,
°C
ветер,
м/с
пор.,
м/с
влажн.,
%
обл.,
%
осадки,
мм/ч
давл.,
гПа
погр.,
м
5 марта, пт
пт500:00−2з41093100 0.1 1004325
03:00−3сз4996100 0.1 1006327
06:00−7сз349695 0.0 100857
09:00−7зсз359564 0.0 1010133
12:00−3зсз34923 0.0 1011317
15:00−1з348744 0.1 1013583
18:00−4з348878 0.1 101356
21:00−7зсз348784 0.1 101542
6 марта, сб
сб600:00−8з2288100 0.0 101621
03:00−9зюз239294 0.0 101728
06:00−12з339453 0.0 101728
09:00−8ссз499560 0.1 1018386
12:00−5ссз588399 0.1 1019645
15:00−4сз367750 0.1 10181042
18:00−7з348325 0.1 101952
21:00−10з458429 0.1 102087
7 марта, вс
вс700:00−11зюз47890 0.0 1019107
03:00−11юз511893 0.0 1017213
06:00−9юз7158833 0.0 1014373
09:00−7юз9178367 0.0 1010615
12:00−4юз121990100 0.1 10041117
15:00−1зюз132091100 1.0 10011551
18:00−6з61470100 1.4 1003516
21:00−9зюз5108150 1.4 1005164
8 марта, пн
пн800:00−9юз613800 0.0 1002267
03:00−5зюз7169025 0.0 1001798
06:00−8з7147967 0.0 1001754
09:00−10з7148534 0.0 1004664
12:00−8зсз7108586 0.0 1006886
15:00−6зсз7108092 0.1 10081146
18:00−8з5128338 0.0 1009315
21:00−10з499448 0.0 1011173
9 марта, вт
вт900:00−11з479544 0.0 101393
03:00−13зсз369643 0.0 101487
06:00−14сз349569 0.0 101682
09:00−13сз389478 0.0 1018339
12:00−11сз468778 0.0 1019631
15:00−9сз468089 0.1 1020878
18:00−11з348533 0.0 102141
21:00−11з498742 0.0 1022206